When you browse on this site, cookies collect data to enhance your experience and personalize the content and advertising you see.
Visit our Privacy Policy to learn more. By continuing to use the site, you agree to this use of cookies and data.
  • In Hungary
  • List of Countries
  • For 7 days
  • Water Temperature
  • Weather Map
  • News
  • Weather Widgets
  • user-avatar
    Login

    Hourly Weather Korhogo

    Today, 19 November, Tuesday

    Time Temperature Precipitation Wind Pressure Humidity
    00:00 +25°C° 0 mm 0 mps 724 mmHg 38%
    01:00 +24°C° 0 mm 0 mps 724 mmHg 43%
    02:00 +23°C° 0 mm 0 mps 723 mmHg 48%
    03:00 +23°C° 0 mm 0 mps 723 mmHg 53%
    04:00 +23°C° 0 mm 0 mps 723 mmHg 57%
    05:00 +24°C° 0 mm 1 mps 724 mmHg 62%
    06:00 +22°C° 0 mm 0 mps 724 mmHg 66%
    07:00 +26°C° 0 mm 1 mps 725 mmHg 62%
    08:00 +28°C° 0 mm 1 mps 725 mmHg 58%
    09:00 +30°C° 0 mm 1 mps 726 mmHg 54%
    10:00 +32°C° 0 mm 1 mps 726 mmHg 46%
    11:00 +34°C° 0 mm 1 mps 725 mmHg 38%
    12:00 +37°C° 0 mm 1 mps 725 mmHg 27%
    13:00 +37°C° 0 mm 1 mps 725 mmHg 26%
    14:00 +38°C° 0 mm 2 mps 724 mmHg 26%
    15:00 +37°C° 0 mm 2 mps 723 mmHg 26%
    16:00 +35°C° 0 mm 1 mps 723 mmHg 30%
    17:00 +33°C° 0 mm 1 mps 723 mmHg 35%
    18:00 +31°C° 0 mm 1 mps 723 mmHg 39%
    19:00 +30°C° 0 mm 1 mps 724 mmHg 43%
    20:00 +29°C° 0 mm 1 mps 724 mmHg 46%
    21:00 +28°C° 0 mm 1 mps 724 mmHg 50%
    22:00 +28°C° 0 mm 1 mps 724 mmHg 55%
    23:00 +27°C° 0 mm 1 mps 724 mmHg 60%

    Tomorrow, 20 November, Wednesday

    Time Temperature Precipitation Wind Pressure Humidity
    00:00 +27°C° 0 mm 1 mps 724 mmHg 65%
    01:00 +26°C° 0 mm 1 mps 723 mmHg 68%
    02:00 +26°C° 0 mm 1 mps 723 mmHg 70%
    03:00 +25°C° 0 mm 1 mps 723 mmHg 73%
    04:00 +25°C° 0 mm 1 mps 723 mmHg 75%
    05:00 +25°C° 0 mm 1 mps 723 mmHg 77%
    06:00 +24°C° 0 mm 1 mps 724 mmHg 79%
    07:00 +26°C° 0 mm 1 mps 724 mmHg 71%
    08:00 +28°C° 0 mm 1 mps 725 mmHg 64%
    09:00 +28°C° 0 mm 0 mps 726 mmHg 56%
    10:00 +31°C° 0 mm 0 mps 726 mmHg 48%
    11:00 +33°C° 0 mm 0 mps 726 mmHg 41%
    12:00 +36°C° 0 mm 0 mps 725 mmHg 33%
    13:00 +36°C° 0 mm 0 mps 725 mmHg 31%
    14:00 +37°C° 0 mm 1 mps 724 mmHg 28%
    15:00 +37°C° 0 mm 1 mps 723 mmHg 26%
    16:00 +35°C° 0 mm 1 mps 723 mmHg 30%
    17:00 +33°C° 0 mm 1 mps 723 mmHg 34%
    18:00 +32°C° 0 mm 1 mps 723 mmHg 38%
    19:00 +31°C° 0 mm 1 mps 723 mmHg 42%
    20:00 +30°C° 0 mm 1 mps 724 mmHg 45%
    21:00 +27°C° 0 mm 0 mps 725 mmHg 49%
    22:00 +28°C° 0 mm 1 mps 724 mmHg 51%
    23:00 +28°C° 0 mm 1 mps 724 mmHg 52%

    Day after tomorrow, 21 November, Thursday

    Time Temperature Precipitation Wind Pressure Humidity
    00:00 +27°C° 0 mm 1 mps 724 mmHg 53%
    01:00 +27°C° 0 mm 1 mps 724 mmHg 54%
    02:00 +26°C° 0 mm 1 mps 724 mmHg 56%
    03:00 +26°C° 0 mm 1 mps 724 mmHg 57%
    04:00 +25°C° 0 mm 1 mps 724 mmHg 57%
    05:00 +25°C° 0 mm 1 mps 724 mmHg 58%
    06:00 +22°C° 0 mm 0 mps 724 mmHg 58%
    07:00 +25°C° 0 mm 0 mps 724 mmHg 53%
    08:00 +29°C° 0 mm 1 mps 725 mmHg 49%
    09:00 +31°C° 0 mm 1 mps 726 mmHg 44%
    10:00 +33°C° 0 mm 1 mps 725 mmHg 36%
    11:00 +36°C° 0 mm 2 mps 725 mmHg 28%
    12:00 +38°C° 0 mm 2 mps 725 mmHg 20%
    13:00 +38°C° 0 mm 2 mps 724 mmHg 19%
    14:00 +38°C° 0 mm 3 mps 723 mmHg 18%
    15:00 +39°C° 0 mm 3 mps 723 mmHg 17%
    16:00 +37°C° 0 mm 2 mps 723 mmHg 20%
    17:00 +33°C° 0 mm 1 mps 723 mmHg 23%
    18:00 +31°C° 0 mm 1 mps 722 mmHg 26%
    19:00 +28°C° 0 mm 0 mps 723 mmHg 27%
    20:00 +27°C° 0 mm 0 mps 723 mmHg 28%
    21:00 +26°C° 0 mm 0 mps 724 mmHg 28%
    22:00 +26°C° 0 mm 0 mps 724 mmHg 29%
    23:00 +25°C° 0 mm 0 mps 724 mmHg 30%

    22 November, Friday

    Time Temperature Precipitation Wind Pressure Humidity
    00:00 +25°C° 0 mm 0 mps 724 mmHg 31%
    01:00 +26°C° 0 mm 1 mps 724 mmHg 37%
    02:00 +25°C° 0 mm 1 mps 723 mmHg 43%
    03:00 +25°C° 0 mm 1 mps 723 mmHg 48%
    04:00 +24°C° 0 mm 1 mps 723 mmHg 57%
    05:00 +24°C° 0 mm 1 mps 724 mmHg 66%
    06:00 +23°C° 0 mm 1 mps 724 mmHg 75%
    07:00 +25°C° 0 mm 2 mps 724 mmHg 73%
    08:00 +27°C° 0 mm 2 mps 725 mmHg 71%
    09:00 +28°C° 0 mm 2 mps 726 mmHg 70%
    10:00 +31°C° 0 mm 2 mps 725 mmHg 59%
    11:00 +33°C° 0 mm 1 mps 725 mmHg 49%
    12:00 +35°C° 0 mm 1 mps 725 mmHg 38%
    13:00 +36°C° 0 mm 1 mps 725 mmHg 35%
    14:00 +36°C° 0 mm 1 mps 724 mmHg 32%
    15:00 +37°C° 0 mm 1 mps 723 mmHg 28%
    16:00 +35°C° 0 mm 1 mps 723 mmHg 32%
    17:00 +33°C° 0 mm 1 mps 723 mmHg 35%
    18:00 +31°C° 0 mm 1 mps 723 mmHg 39%
    19:00 +30°C° 0 mm 1 mps 724 mmHg 42%
    20:00 +29°C° 0 mm 1 mps 724 mmHg 46%
    21:00 +28°C° 0 mm 1 mps 725 mmHg 49%
    22:00 +28°C° 0 mm 1 mps 725 mmHg 54%
    23:00 +27°C° 0 mm 1 mps 724 mmHg 59%

    23 November, Saturday

    Time Temperature Precipitation Wind Pressure Humidity
    00:00 +26°C° 0 mm 1 mps 724 mmHg 64%
    01:00 +26°C° 0 mm 1 mps 724 mmHg 69%
    02:00 +25°C° 0 mm 1 mps 724 mmHg 74%
    03:00 +25°C° 0 mm 2 mps 723 mmHg 79%
    04:00 +24°C° 0 mm 1 mps 723 mmHg 82%
    05:00 +24°C° 0 mm 1 mps 724 mmHg 85%
    06:00 +24°C° 0 mm 1 mps 724 mmHg 87%
    07:00 +25°C° 0 mm 1 mps 724 mmHg 80%
    08:00 +27°C° 0 mm 1 mps 725 mmHg 73%
    09:00 +29°C° 0 mm 1 mps 726 mmHg 65%
    10:00 +31°C° 0 mm 1 mps 725 mmHg 55%
    11:00 +34°C° 0 mm 1 mps 725 mmHg 45%
    12:00 +37°C° 0 mm 1 mps 725 mmHg 35%
    13:00 +37°C° 0 mm 1 mps 724 mmHg 32%
    14:00 +38°C° 0 mm 2 mps 724 mmHg 29%
    15:00 +38°C° 0 mm 2 mps 723 mmHg 26%
    16:00 +36°C° 0 mm 2 mps 723 mmHg 29%
    17:00 +33°C° 0 mm 1 mps 723 mmHg 33%
    18:00 +32°C° 0 mm 1 mps 723 mmHg 36%
    19:00 +31°C° 0 mm 1 mps 723 mmHg 38%
    20:00 +30°C° 0 mm 1 mps 724 mmHg 40%
    21:00 +27°C° 0 mm 0 mps 724 mmHg 42%
    22:00 +28°C° 0 mm 1 mps 724 mmHg 45%
    23:00 +28°C° 0 mm 1 mps 724 mmHg 48%

    24 November, Sunday

    Time Temperature Precipitation Wind Pressure Humidity
    00:00 +27°C° 0 mm 1 mps 724 mmHg 51%
    01:00 +27°C° 0 mm 1 mps 724 mmHg 55%
    02:00 +26°C° 0 mm 1 mps 723 mmHg 60%
    03:00 +26°C° 0 mm 1 mps 723 mmHg 64%
    04:00 +25°C° 0 mm 1 mps 723 mmHg 68%
    05:00 +25°C° 0 mm 1 mps 723 mmHg 73%
    06:00 +24°C° 0 mm 1 mps 724 mmHg 77%
    07:00 +26°C° 0 mm 2 mps 724 mmHg 73%
    08:00 +28°C° 0 mm 2 mps 725 mmHg 69%
    09:00 +29°C° 0 mm 2 mps 726 mmHg 64%
    10:00 +32°C° 0 mm 2 mps 726 mmHg 56%
    11:00 +34°C° 0 mm 1 mps 725 mmHg 48%
    12:00 +36°C° 0 mm 1 mps 725 mmHg 39%
    13:00 +36°C° 0 mm 1 mps 724 mmHg 37%
    14:00 +37°C° 0 mm 2 mps 723 mmHg 35%
    15:00 +37°C° 0 mm 2 mps 723 mmHg 33%
    16:00 +36°C° 0 mm 2 mps 723 mmHg 37%
    17:00 +34°C° 0 mm 2 mps 723 mmHg 41%
    18:00 +32°C° 0 mm 1 mps 723 mmHg 45%
    19:00 +31°C° 0 mm 1 mps 723 mmHg 47%
    20:00 +31°C° 0 mm 1 mps 724 mmHg 48%
    21:00 +30°C° 0 mm 1 mps 724 mmHg 50%
    22:00 +29°C° 0 mm 1 mps 724 mmHg 55%
    23:00 +28°C° 0 mm 1 mps 724 mmHg 60%
    Show more